Hurricane Symbol View the latest observations near Atlantic Tropical Storm Alberto.

Station 41008 (LLNR 833) - GRAYS REEF - 40 NM Southeast of Savannah, GA Image indicating link to RSS feed of recent meteorological observations for station 41008


Conditions at 41008 as of
(8:10 pm EDT on 06/19/2024)
0010 GMT on 06/20/2024:
     

Click on the graph icon in the table below to see a time series plot of the last five days of that observation.

5-day plot - Wind Direction Wind Direction (WDIR): E ( 80 deg true )
5-day plot - Wind Speed Wind Speed (WSPD):9.0 m/s
5-day plot - Wind Gust Wind Gust (GST):10.0 m/s
5-day plot - Atmospheric Pressure Atmospheric Pressure (PRES):1021.8 mb
5-day plot - Air Temperature Air Temperature (ATMP): 27.4 °C
5-day plot - Water Temperature Water Temperature (WTMP): 27.8 °C
5-day plot - Dew Point Dew Point (DEWP): 23.0 °C
5-day plot - Heat Index Heat Index (HEAT): 30.3 °C
5-day plot - Wind Speed at 10 Meters Wind Speed at 10 meters (WSPD10M): 10 m/s
5-day plot - Wind Speed at 20 Meters Wind Speed at 20 meters (WSPD20M): 10 m/s
5-day plot -  Wind Speed, Wind Gust and Atmospheric Pressure Combined plot of Wind Speed, Gust, and Air Pressure
Supplemental Measurements
Highest 1-minute Wind Speed
Time (EDT)5-day plot - 1-Minute Wind Speed WSPD 5-day plot - 1-Minute Wind Direction WDIR
8:05 pm 9 m/s-
Previous observations
TIME
(EDT)
5-day plot - Wind Direction
WDIR
 
5-day plot - Wind Speed
WSPD
m/s
5-day plot - Wind Gust
GST
m/s
5-day plot - Wave Height
WVHT
m
5-day plot - Dominant Wave Period
DPD
sec
5-day plot - Average Wave Period
APD
sec
5-day plot - Mean Wave Direction
MWD
 
5-day plot - Atmospheric Pressure
PRES
mb
5-day plot - Pressure Tendency
PTDY
mb
5-day plot - Air Temperature
ATMP
°C
5-day plot - Water Temperature
WTMP
°C
5-day plot - Dew Point
DEWP
°C
5-day plot - Salinity
SAL
psu
5-day plot - Visibility
VIS
km
5-day plot - Tide (above MLLW)
TIDE
m
2024-06-19 08:00 pmENE 8.0 10.0----1021.7 +0.0 27.4 27.8 23.2---
2024-06-19 07:50 pmENE 8.0 10.0 1.8 65.1ESE1021.7- 27.4 27.8 23.1---
2024-06-19 07:40 pmENE 8.0 10.0----1021.6- 27.4 27.8 22.9---
2024-06-19 07:20 pmENE 8.0 10.0 1.8 85.2 E1021.5- 27.4 27.8 22.5---
2024-06-19 07:10 pmENE 8.0 10.0 1.8-5.2 E1021.4- 27.5 27.8 22.6---
2024-06-19 07:00 pmENE 8.0 10.0----1021.4 -0.3 27.5 27.8 22.4---
2024-06-19 06:50 pmENE 9.0 11.0 1.7 75.0 E1021.4- 27.5 27.8 22.0---
2024-06-19 06:40 pmENE 8.0 10.0----1021.5- 27.4 27.8 22.2---
2024-06-19 06:30 pmENE 8.0 10.0----1021.5- 27.4 27.8 22.6---
2024-06-19 06:20 pmENE 9.0 11.0 1.7 84.9 E1021.5- 27.4 27.8 22.3---
2024-06-19 06:10 pmENE 9.0 11.0 1.7-4.9 E1021.3- 27.4 27.8 22.8---
2024-06-19 06:00 pmENE 9.0 11.0----1021.5 -0.5 27.4 27.8 22.8---
2024-06-19 05:50 pmENE 9.0 11.0 1.6 84.7 E1021.5- 27.4 27.8 22.6---
2024-06-19 05:40 pmENE 9.0 11.0----1021.5- 27.4 27.8 22.7---
2024-06-19 05:30 pmENE 9.0 11.0----1021.5- 27.4 27.8 22.8---
2024-06-19 05:20 pm E 9.0 11.0 1.7 74.7ESE1021.6- 27.4 27.8 22.5---
2024-06-19 05:10 pm E 9.0 11.0 1.7-4.7ESE1021.7- 27.4 27.8 23.0---
2024-06-19 05:00 pmENE 9.0 12.0----1021.6 -0.9 27.4 27.8 22.7---
2024-06-19 04:50 pm E 9.0 11.0 1.7 64.7ESE1021.5- 27.4 27.8 22.9---
2024-06-19 04:40 pm E 9.0 12.0 1.7-4.7ESE1021.5- 27.4 27.8 22.9---
2024-06-19 04:30 pm E 9.0 12.0----1021.5- 27.4 27.8 22.7---
2024-06-19 04:20 pm E 9.0 11.0 1.6 74.7 E1021.5- 27.3 27.8 23.0---
2024-06-19 04:10 pm E 9.0 12.0 1.6-4.7 E1021.7- 27.3 27.7 23.4---
2024-06-19 04:00 pm E 10.0 12.0----1021.8 -1.1 27.3 27.7 23.3---
2024-06-19 03:50 pm E 10.0 12.0 1.4 74.6ESE1021.9- 27.1 27.7 23.3---
2024-06-19 03:40 pm E 9.0 11.0----1021.9- 26.9 27.7 23.2---
2024-06-19 03:30 pm E 9.0 13.0----1022.0- 26.1 27.8 23.0---
2024-06-19 03:20 pm E 9.0 14.0 1.4 75.1ESE1021.8- 26.8 27.8 23.7---
2024-06-19 03:10 pm E 6.0 8.0 1.4-5.1ESE1022.0- 26.6 27.8 23.7---
2024-06-19 03:00 pm E 6.0 7.0----1022.1 -0.7 26.3 27.8 23.5---
2024-06-19 02:50 pmENE 6.0 7.0 1.5 75.1ESE1022.1- 26.2 27.8 23.6---
2024-06-19 02:40 pmENE 7.0 9.0----1022.5- 26.3 27.8 23.2---
2024-06-19 02:30 pm E 7.0 10.0----1022.4- 26.6 27.8 23.7---
2024-06-19 02:20 pmENE 6.0 7.0 1.6 85.0ESE1022.6- 26.6 27.8 23.5---
2024-06-19 02:10 pmENE 6.0 7.0 1.6-5.0ESE1022.5- 26.5 27.8 23.5---
2024-06-19 02:00 pm NE 6.0 8.0----1022.6 +0.0 26.4 27.8 23.8---
2024-06-19 01:50 pm NE 6.0 7.0 1.6 85.1 E1022.7- 26.2 27.7 23.9---
2024-06-19 01:40 pm NE 6.0 8.0----1022.8- 26.0 27.8 23.8---
2024-06-19 01:30 pm NE 7.0 9.0----1022.8- 26.0 27.7 23.6---
2024-06-19 01:20 pm NE 8.0 10.0 1.6 85.0ESE1022.8- 26.3 27.7 23.7---
2024-06-19 01:10 pmENE 8.0 9.0----1022.9- 26.5 27.7 23.6---
2024-06-19 01:00 pmENE 8.0 10.0----1023.0 +0.8 26.7 27.7 23.0---
2024-06-19 12:50 pm NE 8.0 10.0 1.6 85.0ESE1023.0- 26.6 27.7 22.7---
2024-06-19 12:40 pmENE 8.0 10.0 1.6-5.0ESE1023.2- 26.5 27.7 22.6---
2024-06-19 12:30 pm NE 8.0 10.0----1023.1- 26.2 27.7 22.9---
2024-06-19 12:20 pm NE 8.0 10.0 1.7 75.1ESE1023.0- 26.1 27.7 22.8---
2024-06-19 12:10 pm NE 10.0 12.0 1.7-5.1ESE1022.9- 25.9 27.7 22.8---
2024-06-19 12:00 pmENE 10.0 13.0----1022.8 +1.4 26.7 27.7 23.3---
2024-06-19 11:50 amENE 10.0 12.0 1.6 85.1ESE1022.8- 27.2 27.7 22.9---
2024-06-19 11:40 amENE 10.0 13.0----1022.6- 27.2 27.7 22.6---
2024-06-19 11:30 amENE 9.0 11.0----1022.4- 27.2 27.7 22.6---
2024-06-19 11:20 amENE 9.0 12.0 1.5 85.2ESE1022.4- 27.2 27.7 22.7---
2024-06-19 11:10 amENE 9.0 11.0 1.5-5.2ESE1022.3- 27.2 27.7 22.4---
2024-06-19 11:00 amENE 8.0 10.0----1022.4 +1.7 27.2 27.7 22.4---
2024-06-19 10:50 amENE 8.0 10.0 1.7 85.4ESE1022.4- 27.1 27.7 22.3---
2024-06-19 10:40 amENE 8.0 10.0 1.7-5.4ESE1022.3- 26.9 27.7 22.7---
2024-06-19 10:30 amENE 8.0 10.0----1022.2- 26.8 27.7 22.4---
2024-06-19 10:20 amENE 8.0 10.0 1.7 85.2ESE1022.1- 26.9 27.7 22.5---
2024-06-19 10:10 amENE 8.0 10.0 1.7-5.2ESE1022.1- 26.9 27.7 22.4---
2024-06-19 10:00 am E 8.0 10.0----1022.0 +1.5 26.9 27.7 22.3---
2024-06-19 09:50 amENE 8.0 10.0 1.6 75.2ESE1022.0- 26.9 27.7 22.2---
2024-06-19 09:40 am E 8.0 10.0----1021.9- 26.9 27.7 22.1---
2024-06-19 09:30 am E 8.0 10.0----1021.8- 26.9 27.7 21.9---
2024-06-19 09:20 am E 8.0 10.0 1.6 85.3ESE1021.5- 26.9 27.7 22.0---
2024-06-19 09:10 amENE 8.0 10.0 1.6-5.3ESE1021.5- 26.8 27.7 21.8---
2024-06-19 09:00 amENE 8.0 10.0----1021.4 +1.2 26.9 27.7 21.9---
2024-06-19 08:50 am E 8.0 10.0 1.7 85.2 E1021.4- 26.9 27.7 21.7---
2024-06-19 08:40 am E 8.0 11.0----1021.4- 26.9 27.7 21.8---
2024-06-19 08:30 am E 8.0 11.0----1021.3- 26.8 27.7 21.6---
2024-06-19 08:20 am E 9.0 11.0 1.6 75.3ESE1021.1- 26.8 27.7 21.6---
2024-06-19 08:10 am E 9.0 10.0 1.6-5.3ESE1021.0- 26.8 27.7 21.8---
2024-06-19 08:00 am E 9.0 11.0----1020.8 +1.1 26.8 27.7 21.5---
2024-06-19 07:50 amENE 9.0 11.0 1.7 85.3ESE1020.8- 26.7 27.7 21.2---
2024-06-19 07:40 am E 9.0 11.0----1020.6- 26.7 27.7 21.2---
2024-06-19 07:30 am E 8.0 10.0----1020.5- 26.7 27.7 21.1---
2024-06-19 07:20 amENE 8.0 11.0 1.7 85.2ESE1020.5- 26.7 27.8 21.1---
2024-06-19 07:10 am E 8.0 10.0 1.7-5.2ESE1020.5- 26.8 27.8 20.9---
2024-06-19 07:00 am E 8.0 10.0----1020.6 +1.0 26.8 27.8 20.6---
2024-06-19 06:50 am E 8.0 10.0 1.9 85.5ESE1020.6- 26.7 27.8 20.8---
2024-06-19 06:40 am E 8.0 10.0 1.9-5.5ESE1020.5- 26.7 27.8 21.0---
2024-06-19 06:30 am E 8.0 11.0----1020.4- 26.7 27.8 21.0---
2024-06-19 06:20 am E 8.0 10.0 1.9 85.3ESE1020.3- 26.8 27.8 20.9---
2024-06-19 06:10 am E 8.0 10.0 1.9-5.3ESE1020.3- 26.8 27.8 20.9---
2024-06-19 06:00 am E 8.0 10.0----1020.3 +0.6 26.8 27.8 20.9---
2024-06-19 05:50 am E 8.0 10.0 1.9 85.3ESE1020.0- 26.7 27.8 20.8---
2024-06-19 05:40 am E 8.0 10.0----1019.9- 26.8 27.8 21.0---
2024-06-19 05:30 am E 8.0 11.0----1019.9- 26.8 27.8 21.2---
2024-06-19 05:20 am E 8.0 11.0 2.0 75.4ESE1019.8- 26.7 27.8 21.3---
2024-06-19 05:10 am E 8.0 11.0 2.0-5.4ESE1019.8- 26.7 27.8 21.6---
2024-06-19 05:00 am E 8.0 10.0----1019.7 +0.0 26.8 27.8 21.1---
2024-06-19 04:50 am E 9.0 11.0 2.0 85.3ESE1019.7- 26.8 27.8 21.4---
2024-06-19 04:40 am E 8.0 10.0----1019.7- 26.8 27.8 21.7---
2024-06-19 04:30 am E 8.0 11.0----1019.6- 26.9 27.8 21.2---
2024-06-19 04:20 am E 8.0 11.0 1.9 85.3 E1019.6- 26.8 27.8 21.5---
2024-06-19 04:10 am E 8.0 10.0 1.9-5.3 E1019.6- 26.9 27.8 21.4---
2024-06-19 04:00 am E 8.0 10.0----1019.6 -0.8 26.8 27.8 21.2---
2024-06-19 03:50 am E 9.0 11.0 2.1 85.5ESE1019.6- 26.8 27.8 21.7---
2024-06-19 03:40 am E 9.0 11.0----1019.5- 26.9 27.8 21.3---
2024-06-19 03:30 am E 9.0 11.0----1019.5- 26.9 27.8 21.5---
2024-06-19 03:20 am E 9.0 12.0 2.2 85.5ESE1019.5- 27.0 27.8 21.7---
2024-06-19 03:10 am E 9.0 11.0 2.2-5.5ESE1019.6- 27.0 27.8 20.9---
2024-06-19 03:00 am E 9.0 11.0----1019.7 -0.6 26.9 27.8 21.3---
2024-06-19 02:50 am E 9.0 11.0 2.3 85.7ESE1019.8- 27.0 27.8 21.6---
2024-06-19 02:40 am E 9.0 11.0----1019.8- 27.0 27.8 21.6---
2024-06-19 02:30 am E 9.0 12.0----1019.8- 27.0 27.8 21.9---
2024-06-19 02:20 am E 9.0 11.0 2.2 75.5ESE1019.8- 27.0 27.8 22.1---
2024-06-19 02:10 am E 9.0 11.0 2.2-5.5ESE1019.7- 27.0 27.8 22.2---
2024-06-19 02:00 am E 9.0 12.0----1019.9 -0.6 27.0 27.8 21.9---
2024-06-19 01:50 am E 9.0 11.0 2.2 85.6ESE1020.0- 27.0 27.9 22.2---
2024-06-19 01:40 am E 10.0 12.0----1019.9- 27.0 27.9 22.2---
2024-06-19 01:30 am E 9.0 12.0----1020.0- 27.1 27.9 22.2---
2024-06-19 01:20 am E 9.0 12.0 2.1 85.5ESE1020.2- 27.1 27.9 22.4---
2024-06-19 01:10 am E 9.0 12.0 2.1-5.5ESE1020.3- 27.1 27.9 22.6---
2024-06-19 01:00 am E 9.0 11.0----1020.4 +0.6 27.1 27.9 22.7---
2024-06-19 12:50 am E 9.0 11.0 2.1 85.4ESE1020.4- 27.1 27.9 22.7---
2024-06-19 12:40 am E 9.0 11.0----1020.5- 27.2 27.9 22.8---
2024-06-19 12:30 am E 9.0 11.0----1020.4- 27.2 27.9 22.8---
2024-06-19 12:20 am E 9.0 12.0 2.1 85.4ESE1020.4- 27.2 27.9 23.1---
2024-06-19 12:10 am E 10.0 13.0 2.1-5.4ESE1020.3- 27.2 27.9 23.2---
2024-06-19 12:00 am E 10.0 13.0----1020.3 +0.7 27.3 27.9 23.4---
2024-06-18 11:50 pm E 10.0 13.0 2.0 75.4ESE1020.3- 27.3 27.9 23.1---
2024-06-18 11:40 pm E 9.0 12.0----1020.5- 27.3 27.9 23.1---
2024-06-18 11:30 pm E 10.0 12.0----1020.5- 27.4 28.0 23.3---
2024-06-18 11:20 pm E 9.0 11.0 2.0 85.5ESE1020.5- 27.4 28.0 23.3---
2024-06-18 11:10 pm E 9.0 12.0 2.0-5.5ESE1020.5- 27.4 28.0 23.3---
2024-06-18 11:00 pm E 9.0 12.0----1020.5 +1.1 27.4 28.0 22.9---
2024-06-18 10:50 pm E 9.0 12.0 2.0 85.6ESE1020.4- 27.4 28.0 23.2---
2024-06-18 10:40 pm E 9.0 12.0----1020.3- 27.4 28.0 23.1---
2024-06-18 10:30 pm E 10.0 12.0----1020.3- 27.4 28.0 23.1---
2024-06-18 10:20 pm E 9.0 12.0 1.9 85.4ESE1020.0- 27.3 28.0 23.4---
2024-06-18 10:10 pm E 10.0 13.0 1.9-5.4ESE1020.0- 27.4 28.0 23.3---
2024-06-18 10:00 pm E 10.0 13.0----1019.8 +0.6 27.4 28.0 23.3---
2024-06-18 09:50 pm E 9.0 13.0 2.0 85.5ESE1019.8- 27.3 28.0 23.5---
2024-06-18 09:40 pm E 9.0 11.0----1019.7- 27.4 28.0 23.6---
2024-06-18 09:30 pm E 10.0 12.0----1019.7- 27.4 28.0 23.4---
2024-06-18 09:20 pm E 10.0 12.0 2.1 85.4ESE1019.5- 27.3 28.0 23.4---
2024-06-18 09:10 pm E 9.0 12.0 2.1-5.4ESE1019.6- 27.4 28.0 23.5---
2024-06-18 09:00 pm E 9.0 12.0----1019.5 +0.4 27.4 28.0 23.6---
2024-06-18 08:50 pm E 9.0 12.0 2.0 65.3ESE1019.6- 27.4 28.0 23.6---
2024-06-18 08:40 pm E 9.0 11.0----1019.6- 27.5 28.0 23.6---
2024-06-18 08:30 pm E 9.0 12.0----1019.6- 27.4 28.0 23.7---
2024-06-18 08:20 pm E 9.0 12.0 1.9 65.2ESE1019.5- 27.5 28.0 23.7---
2024-06-18 08:10 pm E 10.0 12.0 1.9-5.2ESE1019.4- 27.5 28.0 23.7---
2024-06-18 08:00 pm E 10.0 12.0----1019.4 +0.0 27.5 28.0 23.5---
2024-06-18 07:50 pm E 10.0 14.0 1.8 75.1ESE1019.4- 27.5 28.0 23.6---

Detailed Wave Summary
for 41008 as of (7:40 pm EDT)
2340 GMT on 06/19/2024:

These wave data are displayed in rounded times.

     

Click on the graph icon in the table below to see a time series plot of the last five days of that observation.

5-day plot - Significant Wave Height Significant Wave Height (WVHT): 1.8 m
5-day plot - Swell Height Swell Height (SwH): 0.0 m
5-day plot - Wind Wave Height Wind Wave Height (WWH): 1.8 m
5-day plot - Wind Wave Period Wind Wave Period (WWP): 6.2 sec
5-day plot - Wind Wave Direction Wind Wave Direction (WWD):ESE
5-day plot - Wave Steepness Wave Steepness (STEEPNESS):VERY_STEEP
5-day plot - Average Wave Period Average Wave Period (APD): 5.1 sec
Previous observations
TIME
(EDT)
5-day plot - Wave Height
WVHT
m
5-day plot - Swell Height
SwH
m
5-day plot - Swell Period
SwP
sec
5-day plot - Swell Direction
SwD
 
5-day plot - Wind Wave Height
WWH
m
5-day plot - Wind Wave Period
WWP
sec
5-day plot - Wind Wave Direction
WWD
 
5-day plot - Wave Steepness
STEEPNESS
 
5-day plot - Average Wave Period
APD
sec
2024-06-19 07:10 pm 1.8 0.0-- 1.8 7.7 E STEEP 5.2
2024-06-19 06:40 pm 1.7 0.6 13.8SSW 1.6 7.1 E STEEP 5.0
2024-06-19 06:10 pm 1.7 0.0-- 1.7 7.7 E AVERAGE 4.9
2024-06-19 05:40 pm 1.6 0.7 7.7 E 1.4 5.0 E AVERAGE 4.7
2024-06-19 05:10 pm 1.7 0.6 13.8ENE 1.6 6.7 ESE STEEP 4.7
2024-06-19 04:40 pm 1.7 0.5 12.1ENE 1.6 5.9 ESEVERY_STEEP 4.7
2024-06-19 04:10 pm 1.6 0.0-- 1.6 7.1 E STEEP 4.7
2024-06-19 03:40 pm 1.4 0.0-- 1.4 6.7 ESE STEEP 4.6
2024-06-19 03:10 pm 1.4 1.0 7.1ESE 1.0 5.6 ESE STEEP 5.1
2024-06-19 02:40 pm 1.5 0.8 7.7 E 1.3 6.7 ESE STEEP 5.1
2024-06-19 02:10 pm 1.6 1.2 7.7ESE 1.1 4.8 ESE AVERAGE 5.0
2024-06-19 01:40 pm 1.6 1.2 7.7 E 1.1 4.5 E AVERAGE 5.1
2024-06-19 01:10 pm 1.6 0.8 8.3ESE 1.3 4.3 E AVERAGE 5.0
2024-06-19 12:40 pm 1.6 0.0-- 1.6 7.7 ESE AVERAGE 5.0
2024-06-19 12:10 pm 1.7 0.4 13.8ESE 1.6 7.1 ESE STEEP 5.1
2024-06-19 11:40 am 1.6 0.6 12.1SSE 1.5 7.7 ESE AVERAGE 5.1
2024-06-19 11:10 am 1.5 0.4 9.1ESE 1.5 7.7 ESE AVERAGE 5.2
2024-06-19 10:40 am 1.7 1.1 8.3ESE 1.3 5.6 ESE AVERAGE 5.4
2024-06-19 10:10 am 1.7 0.7 12.1ESE 1.5 7.7 ESE AVERAGE 5.2
2024-06-19 09:40 am 1.6 0.8 9.1ESE 1.3 7.1 ESE STEEP 5.2
2024-06-19 09:10 am 1.6 0.8 8.3ESE 1.4 5.6 ESE AVERAGE 5.3
2024-06-19 08:40 am 1.7 0.9 8.3 E 1.4 6.2 ESE AVERAGE 5.2
2024-06-19 08:10 am 1.6 0.0-- 1.6 7.1 ESE STEEP 5.3
2024-06-19 07:40 am 1.7 0.8 9.1ESE 1.5 7.7 ESE STEEP 5.3
2024-06-19 07:10 am 1.7 0.9 8.3ESE 1.5 6.2 ESE AVERAGE 5.2
2024-06-19 06:40 am 1.9 1.0 9.1 E 1.7 7.7 ESE STEEP 5.5
2024-06-19 06:10 am 1.9 0.9 8.3ESE 1.7 5.9 ESE AVERAGE 5.3
2024-06-19 05:40 am 1.9 1.1 8.3ESE 1.6 6.7 ESE AVERAGE 5.3
2024-06-19 05:10 am 2.0 1.1 8.3ESE 1.7 7.1 ESE STEEP 5.4
2024-06-19 04:40 am 2.0 0.9 8.3ESE 1.8 6.2 ESE AVERAGE 5.3
2024-06-19 04:10 am 1.9 0.9 8.3 E 1.7 5.9 ESE AVERAGE 5.3
2024-06-19 03:40 am 2.1 0.0-- 2.1 7.7 ESE STEEP 5.5
2024-06-19 03:10 am 2.2 1.0 8.3ESE 2.0 6.7 ESE STEEP 5.5
2024-06-19 02:40 am 2.3 0.7 12.9 SE 2.2 7.7 ESE STEEP 5.7
2024-06-19 02:10 am 2.2 1.0 8.3ESE 2.0 7.1 ESE STEEP 5.5
2024-06-19 01:40 am 2.2 1.4 7.7ESE 1.6 5.9 ESE STEEP 5.6
2024-06-19 01:10 am 2.1 1.0 8.3ESE 1.8 7.1 ESE AVERAGE 5.5
2024-06-19 12:40 am 2.1 0.0-- 2.1 7.7 ESE STEEP 5.4
2024-06-19 12:10 am 2.1 0.5 12.9ESE 2.0 8.3 ESE AVERAGE 5.4
2024-06-18 11:40 pm 2.0 0.0-- 2.0 6.7 ESE STEEP 5.4
2024-06-18 11:10 pm 2.0 0.0-- 2.0 7.7 ESE STEEP 5.5
2024-06-18 10:40 pm 2.0 0.6 11.4ESE 1.9 7.7 ESE STEEP 5.6
2024-06-18 10:10 pm 1.9 0.5 12.9 E 1.9 7.7 ESE STEEP 5.4
2024-06-18 09:40 pm 2.0 0.4 10.8 SE 1.9 7.7 ESE STEEP 5.5
2024-06-18 09:10 pm 2.1 0.5 12.1 SE 2.0 7.7 ESE STEEP 5.4
2024-06-18 08:40 pm 2.0 0.4 12.9ESE 1.9 5.9 ESEVERY_STEEP 5.3
2024-06-18 08:10 pm 1.9 0.4 12.1 E 1.9 6.2 ESEVERY_STEEP 5.2

Plot of wave energy versus frequency (and period)